Weather History for DeKalb, IL

Change the Weather History Date:

Friday, January 4, 2013

  Actual Average (KARR) Record (KARR)
Temperature  
Mean Temperature 21 °F 21 °F  
Max Temperature 32 °F 29 °F 62 °F (1997)
Min Temperature 10 °F 14 °F -17 °F (1999)
Degree Days  
Heating Degree Days 44 44  
Month to date heating degree days 174  
Since 1 July heating degree days 2823  
Cooling Degree Days 0 0  
Month to date cooling degree days 0  
Year to date cooling degree days 0  
Moisture  
Dew Point 16 °F    
Average Humidity 78    
Maximum Humidity 85    
Minimum Humidity 64    
Precipitation  
Precipitation 0.00 in 0.04 in 0.85 in (2007)
Month to date precipitation 0.17  
Year to date precipitation 0.17  
Sea Level Pressure  
Sea Level Pressure 30.19 in    
Wind  
Wind Speed 14 mph (WSW)    
Max Wind Speed 23 mph    
Max Gust Speed 31 mph    
Visibility 10 miles    
Events      
T = Trace of Precipitation, MM = Missing Value Source: NWS Daily Summary

Daily Weather History Graph

Daily Weather History Graph

Search for Another Location

Airport:

Trip Planner

Search our weather history database for the weather conditions in past years. The results will help you decide how hot, cold, wet, or windy it might be!

Date:

Astronomy

Jan. 04, 2013 Rise Set
Actual Time 7:22 AM CST 4:37 PM CST
Civil Twilight 6:51 AM CST 5:08 PM CST
Nautical Twilight 6:16 AM CST 5:43 PM CST
Astronomical Twilight 5:42 AM CST 6:17 PM CST
Moon No Moon Rise 10:58 AM CST (1/4)
Length of Visible Light 10h 17m
Length of Day
9h 14m
Waning Gibbous, 55% of the Moon is Illuminated
Jan 4
Waning Gibbous
Jan 4
Last Quarter
Jan 11
New
Jan 18
First Quarter
Jan 26
Full

Hourly Weather History & Observations

Time (CST) Temp. Windchill Dew Point Humidity Pressure Visibility Wind Dir Wind Speed Gust Speed Precip Events Conditions
12:15 AM 12.7 °F -1.8 °F 8.2 °F 82% 30.23 in 10.0 mi West 12.7 mph - N/A   Clear
12:35 AM 12.4 °F -0.8 °F 7.7 °F 82% 30.23 in 10.0 mi WSW 10.4 mph - N/A   Clear
12:55 AM 11.8 °F -3.6 °F 7.3 °F 82% 30.23 in 10.0 mi WSW 13.8 mph - N/A   Clear
1:15 AM 11.5 °F -3.4 °F 7.2 °F 83% 30.23 in 10.0 mi WSW 12.7 mph - N/A   Clear
1:35 AM 11.3 °F -3.6 °F 6.8 °F 82% 30.22 in 10.0 mi WSW 12.7 mph 17.3 mph N/A   Clear
1:55 AM 10.9 °F -1.8 °F 6.6 °F 83% 30.22 in 10.0 mi WSW 9.2 mph - N/A   Clear
2:15 AM 10.9 °F -3.4 °F 6.6 °F 83% 30.23 in 10.0 mi WSW 11.5 mph - N/A   Clear
2:35 AM 10.8 °F -3.6 °F 6.6 °F 83% 30.22 in 10.0 mi WSW 11.5 mph 17.3 mph N/A   Clear
2:55 AM 10.4 °F -4.8 °F 6.6 °F 85% 30.22 in 10.0 mi WSW 12.7 mph - N/A   Clear
3:15 AM 10.4 °F -4.1 °F 6.4 °F 84% 30.22 in 10.0 mi WSW 11.5 mph - N/A   Clear
5:55 AM 12.0 °F -4.0 °F 7.7 °F 83% 30.19 in 10.0 mi WSW 15.0 mph - N/A   Clear
6:15 AM 12.2 °F -4.3 °F 8.1 °F 83% 30.19 in 10.0 mi WSW 16.1 mph - N/A   Clear
6:35 AM 12.4 °F -4.1 °F 8.4 °F 84% 30.19 in 10.0 mi WSW 16.1 mph - N/A   Clear
6:55 AM 12.6 °F -4.4 °F 8.6 °F 84% 30.19 in 10.0 mi SW 17.3 mph - N/A   Clear
7:15 AM 12.9 °F -3.4 °F 9.1 °F 85% 30.19 in 10.0 mi WSW 16.1 mph - N/A   Clear
7:35 AM 14.0 °F -3.9 °F 10.2 °F 85% 30.18 in 10.0 mi WSW 20.7 mph - N/A   Clear
7:55 AM 14.5 °F -1.8 °F 10.4 °F 84% 30.18 in 10.0 mi WSW 17.3 mph 24.2 mph N/A   Clear
8:15 AM 14.9 °F -0.3 °F 10.9 °F 84% 30.19 in 10.0 mi WSW 15.0 mph 20.7 mph N/A   Clear
8:35 AM 16.7 °F 0.1 °F 12.2 °F 82% 30.19 in 10.0 mi WSW 19.6 mph 24.2 mph N/A   Clear
8:55 AM 17.4 °F 2.4 °F 12.9 °F 83% 30.19 in 10.0 mi WSW 16.1 mph 23.0 mph N/A   Clear
9:15 AM 18.1 °F 2.4 °F 13.3 °F 81% 30.20 in 10.0 mi WSW 18.4 mph 24.2 mph N/A   Clear
9:35 AM 19.0 °F 3.6 °F 14.0 °F 81% 30.20 in 10.0 mi WSW 18.4 mph 23.0 mph N/A   Clear
9:55 AM 20.1 °F 6.4 °F 14.9 °F 80% 30.20 in 10.0 mi WSW 15.0 mph 20.7 mph N/A   Clear
10:15 AM 21.9 °F 6.9 °F 16.7 °F 80% 30.19 in 10.0 mi WSW 19.6 mph 25.3 mph N/A   Clear
10:35 AM 23.7 °F 8.9 °F 17.6 °F 77% 30.19 in 10.0 mi WSW 20.7 mph 25.3 mph N/A   Clear
10:55 AM 24.8 °F 10.0 °F 18.5 °F 77% 30.18 in 10.0 mi WSW 21.9 mph 25.3 mph N/A   Clear
11:15 AM 25.5 °F 11.6 °F 18.9 °F 76% 30.17 in 10.0 mi WSW 19.6 mph 25.3 mph N/A   Clear
11:35 AM 27.1 °F 14.1 °F 20.1 °F 75% 30.16 in 10.0 mi WSW 18.4 mph 27.6 mph N/A   Clear
11:55 AM 28.0 °F 14.9 °F 20.5 °F 73% 30.16 in 10.0 mi WSW 19.6 mph 31.1 mph N/A   Clear
12:15 PM 28.6 °F 15.6 °F 20.5 °F 72% 30.15 in 10.0 mi WSW 19.6 mph 25.3 mph N/A   Unknown
12:35 PM 29.1 °F 16.7 °F 20.8 °F 71% 30.14 in 10.0 mi WSW 18.4 mph 29.9 mph N/A   Clear
12:55 PM 30.2 °F 17.1 °F 21.4 °F 70% 30.14 in 10.0 mi WSW 21.9 mph 26.5 mph N/A   Clear
1:15 PM 30.7 °F 17.8 °F 21.0 °F 67% 30.13 in 10.0 mi WSW 21.9 mph 29.9 mph N/A   Clear
1:35 PM 31.6 °F 19.7 °F 21.6 °F 66% 30.13 in 10.0 mi WSW 19.6 mph 26.5 mph N/A   Clear
1:55 PM 31.8 °F 19.0 °F 21.4 °F 65% 30.12 in 10.0 mi WSW 23.0 mph 27.6 mph N/A   Clear
2:15 PM 31.8 °F 19.6 °F 21.4 °F 65% 30.13 in 10.0 mi WSW 20.7 mph 28.8 mph N/A   Clear
2:35 PM 31.8 °F 19.9 °F 21.2 °F 65% 30.14 in 10.0 mi WSW 19.6 mph 26.5 mph N/A   Clear
2:55 PM 32.0 °F 20.8 °F 21.2 °F 64% 30.14 in 10.0 mi WSW 17.3 mph 25.3 mph N/A   Clear
3:15 PM 32.0 °F 21.2 °F 21.2 °F 64% 30.15 in 10.0 mi WSW 16.1 mph 23.0 mph N/A   Clear
3:35 PM 31.8 °F 21.4 °F 21.0 °F 64% 30.16 in 10.0 mi WSW 15.0 mph 21.9 mph N/A   Clear
3:55 PM 31.5 °F 20.9 °F 21.0 °F 65% 30.16 in 10.0 mi WSW 15.0 mph 23.0 mph N/A   Clear
4:15 PM 30.6 °F 20.2 °F 20.7 °F 67% 30.17 in 10.0 mi WSW 13.8 mph 20.7 mph N/A   Clear
4:35 PM 30.0 °F 19.1 °F 20.7 °F 68% 30.16 in 10.0 mi WSW 15.0 mph - N/A   Clear
4:55 PM 29.1 °F 19.4 °F 20.8 °F 71% 30.18 in 10.0 mi WSW 11.5 mph 17.3 mph N/A   Clear
5:15 PM 28.6 °F 17.7 °F 20.8 °F 73% 30.18 in 10.0 mi WSW 13.8 mph - N/A   Clear
5:35 PM 27.9 °F 17.3 °F 20.8 °F 75% 30.19 in 10.0 mi SW 12.7 mph - N/A   Clear
5:55 PM 27.9 °F 17.8 °F 21.0 °F 75% 30.19 in 10.0 mi WSW 11.5 mph - N/A   Clear
6:15 PM 27.3 °F 16.6 °F 21.0 °F 77% 30.19 in 10.0 mi WSW 12.7 mph 17.3 mph N/A   Clear
6:35 PM 27.1 °F 16.9 °F 21.0 °F 78% 30.19 in 10.0 mi WSW 11.5 mph - N/A   Clear
6:55 PM 26.8 °F 17.1 °F 20.8 °F 78% 30.20 in 10.0 mi SW 10.4 mph - N/A   Clear
7:15 PM 26.4 °F 17.3 °F 20.7 °F 79% 30.20 in 10.0 mi WSW 9.2 mph - N/A   Clear
7:35 PM 25.7 °F 18.0 °F 20.5 °F 81% 30.20 in 10.0 mi WSW 6.9 mph - N/A   Clear
7:55 PM 25.2 °F 18.3 °F 20.3 °F 82% 30.21 in 10.0 mi SW 5.8 mph - N/A   Clear
8:15 PM 24.3 °F 17.3 °F 19.9 °F 84% 30.20 in 10.0 mi SW 5.8 mph - N/A   Clear
8:35 PM 23.7 °F 16.6 °F 19.4 °F 84% 30.20 in 10.0 mi SW 5.8 mph - N/A   Clear
8:55 PM 24.1 °F 13.7 °F 20.1 °F 85% 30.20 in 10.0 mi WSW 10.4 mph - N/A   Clear
9:15 PM 24.8 °F 14.6 °F 20.3 °F 83% 30.20 in 10.0 mi WSW 10.4 mph - N/A   Clear
9:35 PM 25.0 °F 14.8 °F 20.3 °F 82% 30.20 in 10.0 mi WSW 10.4 mph - N/A   Clear
9:55 PM 25.5 °F 14.3 °F 20.8 °F 82% 30.21 in 10.0 mi SW 12.7 mph - N/A   Clear
10:15 PM 25.7 °F 14.0 °F 21.0 °F 82% 30.21 in 10.0 mi WSW 13.8 mph - N/A   Clear
10:35 PM 26.1 °F 15.0 °F 21.2 °F 82% 30.21 in 10.0 mi WSW 12.7 mph - N/A   Clear
10:55 PM 25.5 °F 15.5 °F 20.8 °F 82% 30.21 in 10.0 mi WSW 10.4 mph - N/A   Clear
11:15 PM 25.2 °F 16.5 °F 20.3 °F 82% 30.21 in 10.0 mi WSW 8.1 mph - N/A   Clear
11:35 PM 24.8 °F 16.9 °F 20.3 °F 83% 30.19 in 10.0 mi WSW 6.9 mph - N/A   Clear
11:55 PM 24.1 °F 17.0 °F 19.9 °F 84% 30.18 in 10.0 mi WSW 5.8 mph - N/A   Clear